Location: Lac Lasalle
(46.0398°N, 74.1576°W)
Time: 07:25:57
(UTC-05:00)

PCSat - Pass Details

Date: 19 December 2019
Orbit: 785 x 794 km, 67.1° (Epoch: 28 January)

Event Time Altitude Azimuth Distance (km) Brightness Sun altitude
Rises 19:31:10 0° 331° (NNW) 3,304 13.1 -33.3°
Reaches altitude 10° 19:33:53 10° 342° (NNW) 2,372 12.2 -33.7°
Enters shadow 19:34:09 11° 344° (NNW) 2,284 12.1 -33.8°
